GW0455 Weather Reports


time (UTC)temp
C
wind
direction
speed
KPH
gust
KPH
rain 1hr
cm
rain 24hr
cm
rain mn
cm
humidity
%
barometer
mb
20260906214918 32 228 3.2 8.0 0.00 0.05 0.00 32 1003.6
20260906214419 32 217 3.2 8.0 0.00 0.05 0.00 33 1003.7
20260906213919 32 163 1.6 8.0 0.00 0.05 0.00 33 1003.8
20260906213418 32 277 1.6 4.8 0.00 0.05 0.00 35 1004.1
20260906212919 32 254 1.6 4.8 0.00 0.05 0.00 34 1004.1
20260906212418 32 289 1.6 4.8 0.00 0.05 0.00 34 1004.1
20260906211418 32 229 1.6 4.8 0.00 0.05 0.00 35 1004.1
20260906210918 32 200 3.2 8.0 0.00 0.05 0.00 34 1004.1
20260906210419 32 166 1.6 9.7 0.00 0.05 0.00 36 1004.2
20260906205918 32 270 1.6 9.7 0.00 0.05 0.00 36 1004.1
20260906205418 32 232 1.6 9.7 0.00 0.05 0.00 36 1004.6
20260906204419 32 207 3.2 9.7 0.00 0.05 0.00 34 1004.4
20260906203919 32 202 1.6 4.8 0.00 0.05 0.00 34 1004.4
20260906203425 32 314 1.6 4.8 0.00 0.05 0.00 35 1004.4
20260906202919 32 328 3.2 4.8 0.00 0.05 0.00 35 1004.4
20260906202418 31 286 1.6 12.9 0.00 0.05 0.00 34 1004.7
20260906200918 32 292 1.6 4.8 0.00 0.05 0.00 35 1004.4
20260906200419 32 242 1.6 4.8 0.00 0.05 0.00 34 1004.7
20260906195918 32 245 1.6 8.0 0.00 0.05 0.00 38 1004.7
20260906195418 31 276 1.6 8.0 0.00 0.05 0.00 35 1004.7
20260906194918 32 321 1.6 4.8 0.00 0.05 0.00 35 1004.7
20260906194418 32 200 1.6 4.8 0.00 0.05 0.00 35 1004.6
20260906193919 32 264 1.6 3.2 0.00 0.05 0.00 34 1004.7
20260906193419 32 232 1.6 4.8 0.00 0.05 0.00 35 1004.8
20260906192918 31 261 1.6 4.8 0.00 0.05 0.00 36 1005.1
20260906191918 31 234 1.6 8.0 0.00 0.05 0.00 38 1005.4
20260906191418 31 221 4.8 8.0 0.00 0.05 0.00 37 1005.4
20260906190918 31 244 1.6 4.8 0.00 0.05 0.00 38 1005.7
20260906190418 30 204 1.6 4.8 0.00 0.05 0.00 40 1005.8
20260906185918 30 307 1.6 4.8 0.00 0.05 0.00 40 1006.1
20260906184918 30 286 1.6 3.2 0.00 0.05 0.00 39 1006.3
20260906184418 30 241 1.6 4.8 0.00 0.05 0.00 41 1006.7
20260906183919 30 148 1.6 4.8 0.00 0.05 0.00 40 1006.8
20260906182918 28 171 1.6 4.8 0.00 0.05 0.00 43 1006.8
20260906181918 28 343 3.2 4.8 0.00 0.05 0.00 42 1007.2
20260906181418 28 170 1.6 4.8 0.00 0.05 0.00 44 1007.5
20260906180918 28 218 3.2 4.8 0.00 0.05 0.00 43 1007.5
20260906180418 28 228 1.6 4.8 0.00 0.05 0.00 46 1007.5
20260906175918 28 316 1.6 4.8 0.00 0.05 0.00 45 1007.5
20260906175418 27 245 1.6 4.8 0.00 0.05 0.00 47 1007.9
20260906174418 27 211 3.2 4.8 0.00 0.05 0.00 47 1008.1
20260906173918 27 328 3.2 4.8 0.00 0.05 0.00 46 1008.1
20260906173418 27 215 1.6 8.0 0.00 0.05 0.00 48 1008.5
20260906172918 27 325 1.6 8.0 0.00 0.05 0.00 48 1008.5
20260906171918 26 189 1.6 4.8 0.00 0.05 0.00 50 1008.8
20260906171419 27 184 1.6 4.8 0.00 0.05 0.00 49 1008.8
20260906170418 27 339 3.2 8.0 0.00 0.05 0.00 49 1009.1
20260906165918 26 283 0.0 8.0 0.00 0.05 0.00 49 1009.5
20260906165418 26 205 3.2 8.0 0.00 0.05 0.00 50 1009.5
20260906164918 26 326 3.2 4.8 0.00 0.05 0.00 49 1009.3
20260906163918 26 174 1.6 3.2 0.00 0.05 0.00 48 1009.1
20260906162918 25 324 1.6 3.2 0.00 0.05 0.00 52 1009.4
20260906162418 25 305 0.0 3.2 0.00 0.05 0.00 53 1009.2
20260906161918 25 325 1.6 4.8 0.00 0.05 0.00 52 1009.2
20260906161418 25 302 0.0 4.8 0.00 0.05 0.00 52 1009.1
20260906160918 25 9 0.0 3.2 0.00 0.05 0.00 53 1009.4
20260906160417 25 299 1.6 4.8 0.00 0.05 0.00 53 1009.1
20260906155918 24 283 0.0 4.8 0.00 0.05 0.00 55 1009.4
20260906155418 24 352 1.6 4.8 0.00 0.05 0.00 55 1009.4
20260906154918 24 34 0.0 4.8 0.00 0.05 0.00 54 1009.2
20260906154418 23 302 0.0 3.2 0.00 0.05 0.00 56 1009.1
20260906153918 24 325 1.6 8.0 0.00 0.05 0.00 56 1009.4
20260906153418 23 10 0.0 8.0 0.00 0.05 0.00 57 1009.5
20260906152918 23 335 0.0 3.2 0.00 0.05 0.00 56 1009.1
20260906152418 23 337 0.0 3.2 0.00 0.05 0.00 58 1009.4
20260906151918 23 155 0.0 3.2 0.00 0.05 0.00 60 1009.8
20260906151418 22 329 0.0 3.2 0.00 0.05 0.00 61 1010.1
20260906150918 21 328 1.6 3.2 0.00 0.05 0.00 63 1010.2
20260906150418 21 354 1.6 4.8 0.00 0.05 0.00 64 1010.2
20260906145918 22 20 0.0 4.8 0.00 0.05 0.00 62 1010.1
20260906145418 22 6 0.0 3.2 0.00 0.05 0.00 61 1009.5
20260906144918 23 330 0.0 4.8 0.00 0.05 0.00 59 1009.7
20260906144418 23 345 1.6 4.8 0.00 0.05 0.00 60 1009.5
20260906143918 22 332 1.6 4.8 0.00 0.05 0.00 61 1009.4
20260906143418 22 9 0.0 3.2 0.00 0.05 0.00 62 1009.4
20260906142918 22 28 1.6 3.2 0.00 0.05 0.00 63 1009.5
20260906142418 22 335 1.6 3.2 0.00 0.05 0.00 64 1009.5
20260906141920 21 189 1.6 3.2 0.00 0.05 0.00 68 1009.8
20260906141418 20 300 0.0 4.8 0.00 0.05 0.00 70 1009.7
20260906140918 20 325 3.2 4.8 0.00 0.05 0.00 72 1009.8
20260906140418 19 328 1.6 4.8 0.00 0.05 0.00 74 1010.2
20260906135417 18 355 3.2 8.0 0.00 0.05 0.00 78 1010.5
20260906134917 18 31 3.2 8.0 0.00 0.05 0.00 79 1010.2
20260906134418 17 20 3.2 8.0 0.00 0.05 0.00 80 1010.4
20260906133918 17 25 3.2 8.0 0.00 0.05 0.00 81 1010.5
20260906133418 17 25 3.2 8.0 0.00 0.05 0.00 81 1010.2
20260906132418 17 23 4.8 8.0 0.00 0.05 0.00 83 1010.2
20260906131917 17 20 4.8 8.0 0.00 0.05 0.00 84 1010.1
20260906131418 17 25 4.8 8.0 0.00 0.05 0.00 84 1009.9
20260906130918 17 22 3.2 4.8 0.00 0.05 0.00 85 1009.8
20260906130418 17 2 3.2 4.8 0.00 0.05 0.00 85 1009.9
20260906125418 17 352 1.6 3.2 0.00 0.05 0.00 86 1009.8
20260906124918 17 7 1.6 4.8 0.00 0.05 0.00 86 1009.8
20260906124418 17 66 1.6 4.8 0.00 0.05 0.00 87 1009.5
20260906123418 16 351 1.6 8.0 0.00 0.05 0.00 86 1009.5
20260906122918 16 130 1.6 8.0 0.00 0.05 0.00 85 1009.2
20260906122418 17 2 3.2 8.0 0.00 0.05 0.00 85 1009.1
20260906121418 17 339 1.6 4.8 0.00 0.05 0.00 84 1009.1
20260906120917 17 14 1.6 8.0 0.00 0.05 0.00 84 1009.1
20260906120418 17 25 1.6 8.0 0.00 0.05 0.00 84 1008.9
20260906115918 17 0 1.6 4.8 0.00 0.05 0.00 85 1009.0
20260906115418 17 0 1.6 4.8 0.00 0.05 0.00 85 1008.7
20260906114417 17 27 1.6 4.8 0.00 0.05 0.00 84 1008.5
20260906113918 17 40 1.6 3.2 0.00 0.05 0.00 84 1008.5
20260906113425 17 333 1.6 3.2 0.00 0.05 0.00 84 1008.5
20260906112917 17 28 1.6 3.2 0.00 0.05 0.00 83 1008.3
20260906111918 17 6 0.0 4.8 0.00 0.05 0.00 83 1008.1
20260906111417 17 51 0.0 8.0 0.00 0.05 0.00 83 1008.4
20260906110917 17 344 0.0 8.0 0.00 0.05 0.00 82 1008.2
20260906110417 18 14 3.2 8.0 0.00 0.05 0.00 82 1007.8
20260906105918 18 6 1.6 4.8 0.00 0.05 0.00 82 1007.7
20260906105418 18 10 3.2 8.0 0.00 0.05 0.00 82 1008.1
20260906104918 18 52 3.2 8.0 0.00 0.05 0.00 82 1008.0
20260906104417 18 29 3.2 8.0 0.00 0.05 0.00 82 1007.5
20260906103918 18 88 1.6 3.2 0.00 0.05 0.00 82 1007.5
20260906103418 18 2 0.0 4.8 0.00 0.05 0.00 80 1007.6
20260906102417 18 15 0.0 4.8 0.00 0.05 0.00 76 1007.5
20260906101418 18 306 1.6 4.8 0.00 0.05 0.00 73 1007.5
20260906100918 18 262 1.6 4.8 0.00 0.05 0.00 73 1007.5
20260906100418 18 269 1.6 3.2 0.00 0.05 0.00 72 1007.8
20260906095917 18 100 0.0 1.6 0.00 0.05 0.00 72 1007.5
20260906095418 18 348 0.0 1.6 0.00 0.05 0.00 71 1007.5
20260906094918 18 315 0.0 0.0 0.00 0.05 0.00 71 1007.6
20260906094418 18 353 0.0 1.6 0.00 0.05 0.00 71 1007.5
20260906093918 18 353 0.0 1.6 0.00 0.05 0.00 70 1007.1
20260906093418 18 315 0.0 1.6 0.00 0.05 0.00 71 1007.1
20260906092918 18 315 0.0 1.6 0.00 0.05 0.00 70 1006.8
20260906092417 18 321 0.0 1.6 0.00 0.05 0.00 70 1007.1
20260906091917 18 331 0.0 1.6 0.00 0.05 0.00 69 1006.4
20260906091418 18 318 0.0 1.6 0.00 0.05 0.00 69 1007.0
20260906090917 18 336 0.0 1.6 0.00 0.05 0.00 69 1006.9
20260906090417 18 313 0.0 1.6 0.00 0.05 0.00 68 1007.1
20260906085418 19 349 0.0 3.2 0.00 0.05 0.00 67 1006.5
20260906084918 19 314 0.0 3.2 0.00 0.05 0.00 67 1006.8
20260906084417 19 349 0.0 3.2 0.00 0.05 0.00 66 1006.4
20260906083917 19 315 1.6 3.2 0.00 0.05 0.00 66 1006.4
20260906082917 19 285 0.0 1.6 0.00 0.05 0.00 65 1006.8
20260906082418 20 298 0.0 3.2 0.00 0.05 0.00 65 1006.5
20260906081918 20 43 0.0 3.2 0.00 0.05 0.00 66 1006.5
20260906081417 20 347 0.0 3.2 0.00 0.05 0.00 67 1006.7
20260906080918 20 11 0.0 3.2 0.00 0.05 0.00 66 1006.4
20260906080418 20 43 0.0 3.2 0.00 0.05 0.00 64 1006.4
20260906075918 20 359 0.0 3.2 0.00 0.05 0.00 63 1006.4
20260906075417 20 341 1.6 3.2 0.00 0.05 0.00 63 1006.5
20260906074918 20 328 1.6 3.2 0.00 0.05 0.00 63 1006.6
20260906074418 20 329 0.0 3.2 0.00 0.05 0.00 62 1006.4
20260906073918 20 351 1.6 3.2 0.00 0.05 0.00 62 1006.1
20260906073417 20 341 1.6 3.2 0.00 0.05 0.00 62 1006.1
20260906072918 20 358 0.0 3.2 0.00 0.05 0.00 62 1006.1
20260906072417 20 16 0.0 3.2 0.00 0.05 0.00 59 1006.1
20260906071917 20 340 1.6 3.2 0.00 0.05 0.00 57 1006.4
20260906071418 20 334 1.6 3.2 0.00 0.05 0.00 56 1006.0
20260906070917 20 359 0.0 1.6 0.00 0.05 0.00 57 1006.1
20260906070418 20 279 0.0 1.6 0.00 0.05 0.00 59 1006.2
20260906065917 20 335 0.0 3.2 0.00 0.05 0.00 58 1006.4
20260906065418 20 46 0.0 3.2 0.00 0.05 0.00 56 1006.4
20260906064918 20 10 0.0 1.6 0.00 0.05 0.00 55 1006.4
20260906064418 20 345 0.0 1.6 0.00 0.05 0.00 55 1006.4
20260906062917 20 312 0.0 1.6 0.00 0.05 0.00 55 1006.4
20260906062418 21 322 0.0 3.2 0.00 0.05 0.00 54 1006.7
20260906061917 21 326 0.0 3.2 0.00 0.05 0.00 54 1006.4
20260906061418 21 339 0.0 1.6 0.00 0.05 0.00 54 1006.8
20260906060421 21 326 0.0 1.6 0.00 0.05 0.00 53 1006.4
20260906055417 21 356 0.0 1.6 0.00 0.05 0.05 51 1005.9
20260906054918 21 309 0.0 1.6 0.00 0.05 0.05 51 1006.1
20260906054418 21 332 0.0 1.6 0.00 0.05 0.05 50 1005.8
20260906053919 22 321 0.0 3.2 0.00 0.05 0.05 50 1005.5
20260906053419 22 315 0.0 3.2 0.00 0.05 0.05 51 1005.8
20260906052919 22 348 3.2 3.2 0.00 0.05 0.05 48 1005.8
20260906052419 22 357 1.6 3.2 0.00 0.05 0.05 49 1006.1
20260906051925 21 37 1.6 3.2 0.00 0.05 0.05 50 1006.1
20260906051419 21 340 0.0 3.2 0.00 0.05 0.05 49 1006.4
20260906050918 21 337 0.0 1.6 0.00 0.05 0.05 49 1006.0
20260906050419 21 37 0.0 0.0 0.00 0.05 0.05 50 1006.3
20260906045919 21 37 0.0 1.6 0.00 0.05 0.05 49 1005.8
20260906045418 21 14 0.0 3.2 0.03 0.05 0.05 49 1006.1
20260906044926 21 13 1.6 3.2 0.03 0.05 0.05 49 1005.8
20260906044419 21 50 1.6 3.2 0.05 0.05 0.05 49 1006.1
20260906043418 21 332 0.0 0.0 0.05 0.05 0.05 48 1005.8
20260906041919 22 326 0.0 3.2 0.05 0.05 0.05 48 1005.7
20260906041419 22 17 0.0 3.2 0.05 0.05 0.05 48 1005.8
20260906040919 22 3 0.0 1.6 0.05 0.05 0.05 46 1005.5
20260906040419 22 40 0.0 1.6 0.05 0.05 0.05 45 1005.8
20260906035918 23 314 0.0 1.6 0.05 0.05 0.05 44 1005.4
20260906035419 23 323 0.0 3.2 0.03 0.05 0.03 43 1005.8
20260906034919 23 354 0.0 4.8 0.03 0.05 0.03 44 1005.7
20260906034419 23 313 0.0 4.8 0.00 0.03 0.00 41 1006.0
20260906033919 23 219 0.0 3.2 0.00 0.03 0.00 41 1005.8
20260906032919 24 327 1.6 3.2 0.00 0.03 0.00 38 1005.4
20260906032418 24 328 0.0 3.2 0.00 0.03 0.00 38 1005.5
20260906031924 24 305 0.0 1.6 0.00 0.03 0.00 39 1005.7
20260906031418 24 324 1.6 3.2 0.00 0.03 0.00 39 1005.4
20260906030919 24 294 0.0 3.2 0.00 0.03 0.00 40 1005.8
20260906030418 25 322 1.6 3.2 0.00 0.03 0.00 40 1005.7
20260906025919 25 348 1.6 4.8 0.00 0.03 0.00 40 1005.4
20260906025418 25 319 1.6 4.8 0.00 0.03 0.00 39 1005.1
20260906024919 25 324 0.0 3.2 0.00 0.03 0.00 41 1005.2
20260906024418 25 325 1.6 3.2 0.00 0.03 0.00 38 1005.4
20260906023919 25 314 1.6 3.2 0.00 0.03 0.00 37 1005.4
20260906023418 25 311 0.0 1.6 0.00 0.03 0.00 36 1005.8
20260906022918 26 313 0.0 3.2 0.00 0.03 0.00 37 1005.8
20260906022419 26 303 0.0 3.2 0.00 0.03 0.00 36 1005.8
20260906021919 26 333 0.0 3.2 0.00 0.03 0.00 37 1005.8
20260906021418 26 356 1.6 8.0 0.00 0.03 0.00 34 1005.8
20260906020919 27 328 1.6 8.0 0.00 0.03 0.00 33 1005.5
20260906020419 27 332 0.0 4.8 0.00 0.03 0.00 33 1006.1
20260906015918 27 301 1.6 4.8 0.00 0.03 0.00 33 1006.1
20260906015421 27 303 1.6 8.0 0.00 0.03 0.00 33 1006.4
20260906014919 27 320 1.6 8.0 0.00 0.03 0.00 33 1006.4
20260906014419 27 309 3.2 8.0 0.00 0.03 0.00 32 1006.1
20260906013919 27 328 1.6 8.0 0.00 0.03 0.00 33 1006.4
20260906013418 27 322 1.6 4.8 0.00 0.03 0.00 32 1006.4
20260906012418 27 318 1.6 8.0 0.00 0.03 0.00 33 1006.8
20260906011418 28 305 3.2 8.0 0.00 0.03 0.00 32 1006.9
20260906010919 28 305 1.6 8.0 0.00 0.03 0.00 31 1006.8
20260906010418 28 304 3.2 8.0 0.00 0.03 0.00 31 1006.8
20260906005918 28 316 1.6 8.0 0.00 0.03 0.00 31 1006.4
20260906005419 29 325 3.2 8.0 0.00 0.03 0.00 30 1006.4
20260906004919 29 302 1.6 8.0 0.00 0.03 0.00 30 1006.5
20260906004418 29 312 3.2 8.0 0.00 0.03 0.00 29 1006.4
20260906003919 30 314 1.6 8.0 0.00 0.03 0.00 30 1006.8
20260906003418 30 326 1.6 8.0 0.00 0.03 0.00 29 1006.1
20260906002919 30 304 1.6 4.8 0.00 0.03 0.00 29 1006.4
20260906002418 30 305 1.6 4.8 0.00 0.03 0.00 29 1006.2
20260906001919 30 305 0.0 4.8 0.00 0.03 0.00 29 1005.9
20260906001418 31 321 1.6 8.0 0.00 0.03 0.00 28 1005.8
20260906000919 31 284 0.0 9.7 0.00 0.03 0.00 27 1005.8
20260905235918 31 322 3.2 11.3 0.00 0.03 0.00 26 1005.4
20260905235418 32 314 3.2 4.8 0.00 0.03 0.00 26 1005.1
20260905234918 32 289 1.6 4.8 0.00 0.03 0.00 25 1005.1
20260905234418 32 308 1.6 4.8 0.00 0.03 0.00 24 1004.8
20260905233918 32 299 1.6 4.8 0.00 0.03 0.00 24 1004.8
20260905232918 32 292 3.2 4.8 0.00 0.03 0.00 22 1004.5
20260905232419 32 299 1.6 4.8 0.00 0.03 0.00 23 1004.7
20260905231918 32 289 3.2 4.8 0.00 0.03 0.00 23 1004.4
20260905231418 32 247 1.6 3.2 0.00 0.03 0.00 23 1004.7
20260905230419 33 225 1.6 4.8 0.00 0.03 0.00 22 1004.4
20260905225918 33 293 1.6 4.8 0.00 0.03 0.00 22 1004.3
20260905225419 33 248 0.0 8.0 0.00 0.03 0.00 23 1004.4
20260905224919 33 263 0.0 8.0 0.00 0.03 0.00 22 1004.4
20260905224419 33 235 0.0 8.0 0.00 0.03 0.00 22 1004.4
20260905223919 33 289 1.6 8.0 0.00 0.03 0.00 20 1004.1
20260905223419 33 278 1.6 3.2 0.00 0.03 0.00 22 1004.1
20260905222918 34 235 1.6 8.0 0.00 0.03 0.00 21 1004.1
20260905222418 35 187 1.6 8.0 0.00 0.03 0.00 19 1003.7
20260905221919 34 242 3.2 8.0 0.00 0.03 0.00 20 1003.7
20260905221418 34 207 1.6 8.0 0.00 0.03 0.00 19 1004.1
20260905220918 34 229 1.6 8.0 0.00 0.03 0.00 21 1003.9
20260905220419 33 251 1.6 4.8 0.00 0.03 0.00 22 1004.1
20260905215918 33 242 0.0 4.8 0.00 0.03 0.00 21 1004.4
20260905215419 33 114 1.6 8.0 0.00 0.03 0.00 21 1004.1